Year,Month,Day,Hour,Minute,Value (Times are PST for temperature in C)
2011,11,17,00,00,6.30
2011,11,17,00,01,6.20
2011,11,17,00,02,6.20
2011,11,17,00,03,6.10
2011,11,17,00,04,6.10
2011,11,17,00,05,6.00
2011,11,17,00,06,6.00
2011,11,17,00,07,5.90
2011,11,17,00,08,5.90
2011,11,17,00,09,5.80
2011,11,17,00,10,5.80
2011,11,17,00,11,5.80
2011,11,17,00,12,5.80
2011,11,17,00,13,5.80
2011,11,17,00,14,5.90
2011,11,17,00,15,6.00
2011,11,17,00,16,6.00
2011,11,17,00,17,6.10
2011,11,17,00,18,6.20
2011,11,17,00,19,6.20
2011,11,17,00,20,6.10
2011,11,17,00,21,6.00
2011,11,17,00,22,6.00
2011,11,17,00,23,5.90
2011,11,17,00,24,5.90
2011,11,17,00,25,5.90
2011,11,17,00,26,5.90
2011,11,17,00,27,5.80
2011,11,17,00,28,5.80
2011,11,17,00,29,5.80
2011,11,17,00,30,5.70
2011,11,17,00,31,5.70
2011,11,17,00,32,5.50
2011,11,17,00,33,5.40
2011,11,17,00,34,5.30
2011,11,17,00,35,5.20
2011,11,17,00,36,5.10
2011,11,17,00,37,5.00
2011,11,17,00,38,4.90
2011,11,17,00,39,4.90
2011,11,17,00,40,4.80
2011,11,17,00,41,4.80
2011,11,17,00,42,4.90
2011,11,17,00,43,5.00
2011,11,17,00,44,5.10
2011,11,17,00,45,5.20
2011,11,17,00,46,5.20
2011,11,17,00,47,5.30
2011,11,17,00,48,5.30
2011,11,17,00,49,5.30
2011,11,17,00,50,5.40
2011,11,17,00,51,5.40
2011,11,17,00,52,5.40
2011,11,17,00,53,5.40
2011,11,17,00,54,5.40
2011,11,17,00,55,5.40
2011,11,17,00,56,5.40
2011,11,17,00,57,5.40
2011,11,17,00,58,5.40
2011,11,17,00,59,5.40
2011,11,17,01,00,5.30
2011,11,17,01,01,5.30
2011,11,17,01,02,5.40
2011,11,17,01,03,5.40
2011,11,17,01,04,5.40
2011,11,17,01,05,5.30
2011,11,17,01,06,5.30
2011,11,17,01,07,5.20
2011,11,17,01,08,5.10
2011,11,17,01,09,5.00
2011,11,17,01,10,4.90
2011,11,17,01,11,4.90
2011,11,17,01,12,4.80
2011,11,17,01,13,4.80
2011,11,17,01,14,4.80
2011,11,17,01,15,4.80
2011,11,17,01,16,4.80
2011,11,17,01,17,4.80
2011,11,17,01,18,4.80
2011,11,17,01,19,4.80
2011,11,17,01,20,4.80
2011,11,17,01,21,4.80
2011,11,17,01,22,4.90
2011,11,17,01,23,4.90
2011,11,17,01,24,4.90
2011,11,17,01,25,4.90
2011,11,17,01,26,4.90
2011,11,17,01,27,4.90
2011,11,17,01,28,4.80
2011,11,17,01,29,4.80
2011,11,17,01,30,4.80
2011,11,17,01,31,4.80
2011,11,17,01,32,4.70
2011,11,17,01,33,4.70
2011,11,17,01,34,4.70
2011,11,17,01,35,4.70
2011,11,17,01,36,4.70
2011,11,17,01,37,4.70
2011,11,17,01,38,4.70
2011,11,17,01,39,4.70
2011,11,17,01,40,4.70
2011,11,17,01,41,4.70
2011,11,17,01,42,4.70
2011,11,17,01,43,4.70
2011,11,17,01,44,4.70
2011,11,17,01,45,4.70
2011,11,17,01,46,4.70
2011,11,17,01,47,4.70
2011,11,17,01,48,4.70
2011,11,17,01,49,4.80
2011,11,17,01,50,4.90
2011,11,17,01,51,4.90
2011,11,17,01,52,4.90
2011,11,17,01,53,5.00
2011,11,17,01,54,5.00
2011,11,17,01,55,5.20
2011,11,17,01,56,5.30
2011,11,17,01,57,5.40
2011,11,17,01,58,5.50
2011,11,17,01,59,5.50
2011,11,17,02,00,5.60
2011,11,17,02,01,5.70
2011,11,17,02,02,5.80
2011,11,17,02,03,5.90
2011,11,17,02,04,5.90
2011,11,17,02,05,5.90
2011,11,17,02,06,5.90
2011,11,17,02,07,5.80
2011,11,17,02,08,5.80
2011,11,17,02,09,5.80
2011,11,17,02,10,5.70
2011,11,17,02,11,5.70
2011,11,17,02,12,5.70
2011,11,17,02,13,5.60
2011,11,17,02,14,5.60
2011,11,17,02,15,5.60
2011,11,17,02,16,5.60
2011,11,17,02,17,5.50
2011,11,17,02,18,5.50
2011,11,17,02,19,5.50
2011,11,17,02,20,5.50
2011,11,17,02,21,5.40
2011,11,17,02,22,5.40
2011,11,17,02,23,5.40
2011,11,17,02,24,5.40
2011,11,17,02,25,5.40
2011,11,17,02,26,5.40
2011,11,17,02,27,5.40
2011,11,17,02,28,5.30
2011,11,17,02,29,5.30
2011,11,17,02,30,5.30
2011,11,17,02,31,5.30
2011,11,17,02,32,5.30
2011,11,17,02,33,5.20
2011,11,17,02,34,5.20
2011,11,17,02,35,5.10
2011,11,17,02,36,5.00
2011,11,17,02,37,4.90
2011,11,17,02,38,4.80
2011,11,17,02,39,4.70
2011,11,17,02,40,4.60
2011,11,17,02,41,4.50
2011,11,17,02,42,4.50
2011,11,17,02,43,4.40
2011,11,17,02,44,4.30
2011,11,17,02,45,4.10
2011,11,17,02,46,4.00
2011,11,17,02,47,3.80
2011,11,17,02,48,3.60
2011,11,17,02,49,3.40
2011,11,17,02,50,3.20
2011,11,17,02,51,3.10
2011,11,17,02,52,3.00
2011,11,17,02,53,2.90
2011,11,17,02,54,2.90
2011,11,17,02,55,2.80
2011,11,17,02,56,2.80
2011,11,17,02,57,2.70
2011,11,17,02,58,2.60
2011,11,17,02,59,2.50
2011,11,17,03,00,2.50
2011,11,17,03,01,2.40
2011,11,17,03,02,2.30
2011,11,17,03,03,2.20
2011,11,17,03,04,2.20
2011,11,17,03,05,2.20
2011,11,17,03,06,2.20
2011,11,17,03,07,2.20
2011,11,17,03,08,2.20
2011,11,17,03,09,2.30
2011,11,17,03,10,2.40
2011,11,17,03,11,2.40
2011,11,17,03,12,2.40
2011,11,17,03,13,2.50
2011,11,17,03,14,2.50
2011,11,17,03,15,2.50
2011,11,17,03,16,2.60
2011,11,17,03,17,2.60
2011,11,17,03,18,2.70
2011,11,17,03,19,2.70
2011,11,17,03,20,2.70
2011,11,17,03,21,2.80
2011,11,17,03,22,2.80
2011,11,17,03,23,2.80
2011,11,17,03,24,2.80
2011,11,17,03,25,2.80
2011,11,17,03,26,2.80
2011,11,17,03,27,2.80
2011,11,17,03,28,2.80
2011,11,17,03,29,2.80
2011,11,17,03,30,2.80
2011,11,17,03,31,2.70
2011,11,17,03,32,2.70
2011,11,17,03,33,2.70
2011,11,17,03,34,2.70
2011,11,17,03,35,2.70
2011,11,17,03,36,2.60
2011,11,17,03,37,2.50
2011,11,17,03,38,2.40
2011,11,17,03,39,2.40
2011,11,17,03,40,2.30
2011,11,17,03,41,2.20
2011,11,17,03,42,2.10
2011,11,17,03,43,2.10
2011,11,17,03,44,2.00
2011,11,17,03,45,1.90
2011,11,17,03,46,1.80
2011,11,17,03,47,1.70
2011,11,17,03,48,1.60
2011,11,17,03,49,1.50
2011,11,17,03,50,1.50
2011,11,17,03,51,1.40
2011,11,17,03,52,1.40
2011,11,17,03,53,1.30
2011,11,17,03,54,1.30
2011,11,17,03,55,1.30
2011,11,17,03,56,1.20
2011,11,17,03,57,1.20
2011,11,17,03,58,1.10
2011,11,17,03,59,1.10
2011,11,17,04,00,1.00
2011,11,17,04,01,1.00
2011,11,17,04,02,1.00
2011,11,17,04,03,1.20
2011,11,17,04,04,1.40
2011,11,17,04,05,1.40
2011,11,17,04,06,1.40
2011,11,17,04,07,1.40
2011,11,17,04,08,1.40
2011,11,17,04,09,1.40
2011,11,17,04,10,1.40
2011,11,17,04,11,1.40
2011,11,17,04,12,1.40
2011,11,17,04,13,1.40
2011,11,17,04,14,1.40
2011,11,17,04,15,1.40
2011,11,17,04,16,1.40
2011,11,17,04,17,1.30
2011,11,17,04,18,1.20
2011,11,17,04,19,1.20
2011,11,17,04,20,1.20
2011,11,17,04,21,1.20
2011,11,17,04,22,1.10
2011,11,17,04,23,1.00
2011,11,17,04,24,1.00
2011,11,17,04,25,0.90
2011,11,17,04,26,0.90
2011,11,17,04,27,0.80
2011,11,17,04,28,0.80
2011,11,17,04,29,0.80
2011,11,17,04,30,0.70
2011,11,17,04,31,0.70
2011,11,17,04,32,0.70
2011,11,17,04,33,0.70
2011,11,17,04,34,0.70
2011,11,17,04,35,0.60
2011,11,17,04,36,0.60
2011,11,17,04,37,0.50
2011,11,17,04,38,0.50
2011,11,17,04,39,0.50
2011,11,17,04,40,0.50
2011,11,17,04,41,0.50
2011,11,17,04,42,0.50
2011,11,17,04,43,0.50
2011,11,17,04,44,0.50
2011,11,17,04,45,0.60
2011,11,17,04,46,0.60
2011,11,17,04,47,0.50
2011,11,17,04,48,0.50
2011,11,17,04,49,0.50
2011,11,17,04,50,0.50
2011,11,17,04,51,0.50
2011,11,17,04,52,0.40
2011,11,17,04,53,0.40
2011,11,17,04,54,0.40
2011,11,17,04,55,0.50
2011,11,17,04,56,0.50
2011,11,17,04,57,0.50
2011,11,17,04,58,0.40
2011,11,17,04,59,0.40
2011,11,17,05,00,0.40
2011,11,17,05,01,0.40
2011,11,17,05,02,0.40
2011,11,17,05,03,0.50
2011,11,17,05,04,0.60
2011,11,17,05,05,0.70
2011,11,17,05,06,0.70
2011,11,17,05,07,0.80
2011,11,17,05,08,0.80
2011,11,17,05,09,0.80
2011,11,17,05,10,0.80
2011,11,17,05,11,0.80
2011,11,17,05,12,0.80
2011,11,17,05,13,0.80
2011,11,17,05,14,0.80
2011,11,17,05,15,0.80
2011,11,17,05,16,0.90
2011,11,17,05,17,1.00
2011,11,17,05,18,1.10
2011,11,17,05,19,1.10
2011,11,17,05,20,1.10
2011,11,17,05,21,1.10
2011,11,17,05,22,1.10
2011,11,17,05,23,1.10
2011,11,17,05,24,1.10
2011,11,17,05,25,1.00
2011,11,17,05,26,0.90
2011,11,17,05,27,0.80
2011,11,17,05,28,0.70
2011,11,17,05,29,0.90
2011,11,17,05,30,1.20
2011,11,17,05,31,1.50
2011,11,17,05,32,1.80
2011,11,17,05,33,2.20
2011,11,17,05,34,2.40
2011,11,17,05,35,2.70
2011,11,17,05,36,3.00
2011,11,17,05,37,3.30
2011,11,17,05,38,3.50
2011,11,17,05,39,3.60
2011,11,17,05,40,3.70
2011,11,17,05,41,3.80
2011,11,17,05,42,3.90
2011,11,17,05,43,3.90
2011,11,17,05,44,3.90
2011,11,17,05,45,3.90
2011,11,17,05,46,3.90
2011,11,17,05,47,3.90
2011,11,17,05,48,3.90
2011,11,17,05,49,3.90
2011,11,17,05,50,3.90
2011,11,17,05,51,3.90
2011,11,17,05,52,3.80
2011,11,17,05,53,3.80
2011,11,17,05,54,3.80
2011,11,17,05,55,3.70
2011,11,17,05,56,3.70
2011,11,17,05,57,3.60
2011,11,17,05,58,3.50
2011,11,17,05,59,3.50
2011,11,17,06,00,3.40
2011,11,17,06,01,3.40
2011,11,17,06,02,3.40
2011,11,17,06,03,3.40
2011,11,17,06,04,3.30
2011,11,17,06,05,3.20
2011,11,17,06,06,3.20
2011,11,17,06,07,3.20
2011,11,17,06,08,3.20
2011,11,17,06,09,3.20
2011,11,17,06,10,3.20
2011,11,17,06,11,3.30
2011,11,17,06,12,3.30
2011,11,17,06,13,3.40
2011,11,17,06,14,3.40
2011,11,17,06,15,3.50
2011,11,17,06,16,3.60
2011,11,17,06,17,3.50
2011,11,17,06,18,3.50
2011,11,17,06,19,3.50
2011,11,17,06,20,3.50
2011,11,17,06,21,3.50
2011,11,17,06,22,3.50
2011,11,17,06,23,3.50
2011,11,17,06,24,3.40
2011,11,17,06,25,3.30
2011,11,17,06,26,3.20
2011,11,17,06,27,3.20
2011,11,17,06,28,3.10
2011,11,17,06,29,3.10
2011,11,17,06,30,3.10
2011,11,17,06,31,3.10
2011,11,17,06,32,3.00
2011,11,17,06,33,3.00
2011,11,17,06,34,3.00
2011,11,17,06,35,2.90
2011,11,17,06,36,2.90
2011,11,17,06,37,2.90
2011,11,17,06,38,2.90
2011,11,17,06,39,2.90
2011,11,17,06,40,3.00
2011,11,17,06,41,3.10
2011,11,17,06,42,3.10
2011,11,17,06,43,3.20
2011,11,17,06,44,3.40
2011,11,17,06,45,3.50
2011,11,17,06,46,3.60
2011,11,17,06,47,3.70
2011,11,17,06,48,3.80
2011,11,17,06,49,3.80
2011,11,17,06,50,3.90
2011,11,17,06,51,4.00
2011,11,17,06,52,4.10
2011,11,17,06,53,4.10
2011,11,17,06,54,4.10
2011,11,17,06,55,4.00
2011,11,17,06,56,4.00
2011,11,17,06,57,3.90
2011,11,17,06,58,3.90
2011,11,17,06,59,3.90
2011,11,17,07,00,3.80
2011,11,17,07,01,3.80
2011,11,17,07,02,3.80
2011,11,17,07,03,3.80
2011,11,17,07,04,3.80
2011,11,17,07,05,3.80
2011,11,17,07,06,3.80
2011,11,17,07,07,3.70
2011,11,17,07,08,3.70
2011,11,17,07,09,3.70
2011,11,17,07,10,3.70
2011,11,17,07,11,3.70
2011,11,17,07,12,3.70
2011,11,17,07,13,3.70
2011,11,17,07,14,3.70
2011,11,17,07,15,3.70
2011,11,17,07,16,3.70
2011,11,17,07,17,3.70
2011,11,17,07,18,3.70
2011,11,17,07,19,3.70
2011,11,17,07,20,3.70
2011,11,17,07,21,3.80
2011,11,17,07,22,3.80
2011,11,17,07,23,3.80
2011,11,17,07,24,3.70
2011,11,17,07,25,3.70
2011,11,17,07,26,3.70
2011,11,17,07,27,3.60
2011,11,17,07,28,3.50
2011,11,17,07,29,3.50
2011,11,17,07,30,3.40
2011,11,17,07,31,3.40
2011,11,17,07,32,3.40
2011,11,17,07,33,3.50
2011,11,17,07,34,3.50
2011,11,17,07,35,3.60
2011,11,17,07,36,3.60
2011,11,17,07,37,3.70
2011,11,17,07,38,3.70
2011,11,17,07,39,3.80
2011,11,17,07,40,3.80
2011,11,17,07,41,3.70
2011,11,17,07,42,3.70
2011,11,17,07,43,3.70
2011,11,17,07,44,3.60
2011,11,17,07,45,3.60
2011,11,17,07,46,3.50
2011,11,17,07,47,3.50
2011,11,17,07,48,3.40
2011,11,17,07,49,3.30
2011,11,17,07,50,3.20
2011,11,17,07,51,3.10
2011,11,17,07,52,3.10
2011,11,17,07,53,3.00
2011,11,17,07,54,3.00
2011,11,17,07,55,2.90
2011,11,17,07,56,2.90
2011,11,17,07,57,2.90
2011,11,17,07,58,2.90
2011,11,17,07,59,2.90
2011,11,17,08,00,2.90
2011,11,17,08,01,2.80
2011,11,17,08,02,2.70
2011,11,17,08,03,2.60
2011,11,17,08,04,2.50
2011,11,17,08,05,2.40
2011,11,17,08,06,2.30
2011,11,17,08,07,2.20
2011,11,17,08,08,2.10
2011,11,17,08,09,2.00
2011,11,17,08,10,1.90
2011,11,17,08,11,1.80
2011,11,17,08,12,1.80
2011,11,17,08,13,1.80
2011,11,17,08,14,1.80
2011,11,17,08,15,2.00
2011,11,17,08,16,2.10
2011,11,17,08,17,2.30
2011,11,17,08,18,2.30
2011,11,17,08,19,2.30
2011,11,17,08,20,2.30
2011,11,17,08,21,2.20
2011,11,17,08,22,2.20
2011,11,17,08,23,2.20
2011,11,17,08,24,2.10
2011,11,17,08,25,2.10
2011,11,17,08,26,2.00
2011,11,17,08,27,1.90
2011,11,17,08,28,1.90
2011,11,17,08,29,1.80
2011,11,17,08,30,1.70
2011,11,17,08,31,1.70
2011,11,17,08,32,1.60
2011,11,17,08,33,1.50
2011,11,17,08,34,1.50
2011,11,17,08,35,1.40
2011,11,17,08,36,1.40
2011,11,17,08,37,1.40
2011,11,17,08,38,1.40
2011,11,17,08,39,1.40
2011,11,17,08,40,1.30
2011,11,17,08,41,1.30
2011,11,17,08,42,1.30
2011,11,17,08,43,1.30
2011,11,17,08,44,1.30
2011,11,17,08,45,1.30
2011,11,17,08,46,1.20
2011,11,17,08,47,1.20
2011,11,17,08,48,1.20
2011,11,17,08,49,1.20
2011,11,17,08,50,1.20
2011,11,17,08,51,1.20
2011,11,17,08,52,1.30
2011,11,17,08,53,1.30
2011,11,17,08,54,1.40
2011,11,17,08,55,1.40
2011,11,17,08,56,1.50
2011,11,17,08,57,1.60
2011,11,17,08,58,1.60
2011,11,17,08,59,1.60
2011,11,17,09,00,1.60
2011,11,17,09,01,1.70
2011,11,17,09,02,1.70
2011,11,17,09,03,1.80
2011,11,17,09,04,1.80
2011,11,17,09,05,1.90
2011,11,17,09,06,1.90
2011,11,17,09,07,2.00
2011,11,17,09,08,2.10
2011,11,17,09,09,2.10
2011,11,17,09,10,2.20
2011,11,17,09,11,2.20
2011,11,17,09,12,2.30
2011,11,17,09,13,2.30
2011,11,17,09,14,2.40
2011,11,17,09,15,2.40
2011,11,17,09,16,2.50
2011,11,17,09,17,2.50
2011,11,17,09,18,2.60
2011,11,17,09,19,2.60
2011,11,17,09,20,2.70
2011,11,17,09,21,2.80
2011,11,17,09,22,2.90
2011,11,17,09,23,3.00
2011,11,17,09,24,3.20
2011,11,17,09,25,3.40
2011,11,17,09,26,3.60
2011,11,17,09,27,3.80
2011,11,17,09,28,3.80
2011,11,17,09,29,3.90
2011,11,17,09,30,3.90
2011,11,17,09,31,3.90
2011,11,17,09,32,3.90
2011,11,17,09,33,3.90
2011,11,17,09,34,3.90
2011,11,17,09,35,3.90
2011,11,17,09,36,4.00
2011,11,17,09,37,4.00
2011,11,17,09,38,4.00
2011,11,17,09,39,4.00
2011,11,17,09,40,4.10
2011,11,17,09,41,4.10
2011,11,17,09,42,4.20
2011,11,17,09,43,4.20
2011,11,17,09,44,4.20
2011,11,17,09,45,4.30
2011,11,17,09,46,4.30
2011,11,17,09,47,4.40
2011,11,17,09,48,4.40
2011,11,17,09,49,4.40
2011,11,17,09,50,4.50
2011,11,17,09,51,4.60
2011,11,17,09,52,4.60
2011,11,17,09,53,4.70
2011,11,17,09,54,4.70
2011,11,17,09,55,4.70
2011,11,17,09,56,4.70
2011,11,17,09,57,4.80
2011,11,17,09,58,4.80
2011,11,17,09,59,4.80
2011,11,17,10,00,4.80
2011,11,17,10,01,4.80
2011,11,17,10,02,4.80
2011,11,17,10,03,4.90
2011,11,17,10,04,4.90
2011,11,17,10,05,4.90
2011,11,17,10,06,4.90
2011,11,17,10,07,4.80
2011,11,17,10,08,4.80
2011,11,17,10,09,4.80
2011,11,17,10,10,4.80
2011,11,17,10,11,4.80
2011,11,17,10,12,4.80
2011,11,17,10,13,4.80
2011,11,17,10,14,4.80
2011,11,17,10,15,4.80
2011,11,17,10,16,4.80
2011,11,17,10,17,4.90
2011,11,17,10,18,5.00
2011,11,17,10,19,5.00
2011,11,17,10,20,5.10
2011,11,17,10,21,5.30
2011,11,17,10,22,5.40
2011,11,17,10,23,5.50
2011,11,17,10,24,5.60
2011,11,17,10,25,5.70
2011,11,17,10,26,5.80
2011,11,17,10,27,5.80
2011,11,17,10,28,5.80
2011,11,17,10,29,5.80
2011,11,17,10,30,5.80
2011,11,17,10,31,5.80
2011,11,17,10,32,5.80
2011,11,17,10,33,5.80
2011,11,17,10,34,5.90
2011,11,17,10,35,6.00
2011,11,17,10,36,6.10
2011,11,17,10,37,6.20
2011,11,17,10,38,6.20
2011,11,17,10,39,6.20
2011,11,17,10,40,6.20
2011,11,17,10,41,6.30
2011,11,17,10,42,6.30
2011,11,17,10,43,6.30
2011,11,17,10,44,6.30
2011,11,17,10,45,6.30
2011,11,17,10,46,6.30
2011,11,17,10,47,6.30
2011,11,17,10,48,6.30
2011,11,17,10,49,6.30
2011,11,17,10,50,6.30
2011,11,17,10,51,6.30
2011,11,17,10,52,6.30
2011,11,17,10,53,6.30
2011,11,17,10,54,6.30
2011,11,17,10,55,6.20
2011,11,17,10,56,6.20
2011,11,17,10,57,6.20
2011,11,17,10,58,6.20
2011,11,17,10,59,6.10
2011,11,17,11,00,6.10
2011,11,17,11,01,6.00
2011,11,17,11,02,6.00
2011,11,17,11,03,6.00
2011,11,17,11,04,6.00
2011,11,17,11,05,6.00
2011,11,17,11,06,6.00
2011,11,17,11,07,6.00
2011,11,17,11,08,6.00
2011,11,17,11,09,6.00
2011,11,17,11,10,6.10
2011,11,17,11,11,6.10
2011,11,17,11,12,6.10
2011,11,17,11,13,6.10
2011,11,17,11,14,6.20
2011,11,17,11,15,6.20
2011,11,17,11,16,6.20
2011,11,17,11,17,6.20
2011,11,17,11,18,6.20
2011,11,17,11,19,6.30
2011,11,17,11,20,6.30
2011,11,17,11,21,6.30
2011,11,17,11,22,6.30
2011,11,17,11,23,6.30
2011,11,17,11,24,6.30
2011,11,17,11,25,6.30
2011,11,17,11,26,6.30
2011,11,17,11,27,6.30
2011,11,17,11,28,6.30
2011,11,17,11,29,6.30
2011,11,17,11,30,6.30
2011,11,17,11,31,6.20
2011,11,17,11,32,6.20
2011,11,17,11,33,6.10
2011,11,17,11,34,6.10
2011,11,17,11,35,6.10
2011,11,17,11,36,6.00
2011,11,17,11,37,6.00
2011,11,17,11,38,6.00
2011,11,17,11,39,5.90
2011,11,17,11,40,5.90
2011,11,17,11,41,5.90
2011,11,17,11,42,5.90
2011,11,17,11,43,5.90
2011,11,17,11,44,5.80
2011,11,17,11,45,5.80
2011,11,17,11,46,5.80
2011,11,17,11,47,5.80
2011,11,17,11,48,5.80
2011,11,17,11,49,5.80
2011,11,17,11,50,5.70
2011,11,17,11,51,5.70
2011,11,17,11,52,5.70
2011,11,17,11,53,5.70
2011,11,17,11,54,5.60
2011,11,17,11,55,5.60
2011,11,17,11,56,5.60
2011,11,17,11,57,5.60
2011,11,17,11,58,5.50
2011,11,17,11,59,5.50
2011,11,17,12,00,5.40
2011,11,17,12,01,5.30
2011,11,17,12,02,5.20
2011,11,17,12,03,5.00
2011,11,17,12,04,4.80
2011,11,17,12,05,4.70
2011,11,17,12,06,4.60
2011,11,17,12,07,4.50
2011,11,17,12,08,4.50
2011,11,17,12,09,4.40
2011,11,17,12,10,4.30
2011,11,17,12,11,4.30
2011,11,17,12,12,4.20
2011,11,17,12,13,4.20
2011,11,17,12,14,4.20
2011,11,17,12,15,4.10
2011,11,17,12,16,4.10
2011,11,17,12,17,4.00
2011,11,17,12,18,4.00
2011,11,17,12,19,4.00
2011,11,17,12,20,4.00
2011,11,17,12,21,4.00
2011,11,17,12,22,4.00
2011,11,17,12,23,4.00
2011,11,17,12,24,4.10
2011,11,17,12,25,4.10
2011,11,17,12,26,4.10
2011,11,17,12,27,4.10
2011,11,17,12,28,4.10
2011,11,17,12,29,4.10
2011,11,17,12,30,4.00
2011,11,17,12,31,4.00
2011,11,17,12,32,4.00
2011,11,17,12,33,4.00
2011,11,17,12,34,4.00
2011,11,17,12,35,4.10
2011,11,17,12,36,4.10
2011,11,17,12,37,4.10
2011,11,17,12,38,4.10
2011,11,17,12,39,4.10
2011,11,17,12,40,4.10
2011,11,17,12,41,4.10
2011,11,17,12,42,4.10
2011,11,17,12,43,4.10
2011,11,17,12,44,4.10
2011,11,17,12,45,4.10
2011,11,17,12,46,4.10
2011,11,17,12,47,4.10
2011,11,17,12,48,4.10
2011,11,17,12,49,4.10
2011,11,17,12,50,4.10
2011,11,17,12,51,4.10
2011,11,17,12,52,4.10
2011,11,17,12,53,4.10
2011,11,17,12,54,4.10
2011,11,17,12,55,4.10
2011,11,17,12,56,4.10
2011,11,17,12,57,4.10
2011,11,17,12,58,4.10
2011,11,17,12,59,4.10
2011,11,17,13,00,4.10
2011,11,17,13,01,4.10
2011,11,17,13,02,4.10
2011,11,17,13,03,4.00
2011,11,17,13,04,4.10
2011,11,17,13,05,4.00
2011,11,17,13,06,4.00
2011,11,17,13,07,4.00
2011,11,17,13,08,4.00
2011,11,17,13,09,4.00
2011,11,17,13,10,3.90
2011,11,17,13,11,3.90
2011,11,17,13,12,3.80
2011,11,17,13,13,3.70
2011,11,17,13,14,3.50
2011,11,17,13,15,3.40
2011,11,17,13,16,3.30
2011,11,17,13,17,3.20
2011,11,17,13,18,3.10
2011,11,17,13,19,3.00
2011,11,17,13,20,2.90
2011,11,17,13,21,2.80
2011,11,17,13,22,2.70
2011,11,17,13,23,2.70
2011,11,17,13,24,2.60
2011,11,17,13,25,2.50
2011,11,17,13,26,2.50
2011,11,17,13,27,2.40
2011,11,17,13,28,2.30
2011,11,17,13,29,2.30
2011,11,17,13,30,2.20
2011,11,17,13,31,2.20
2011,11,17,13,32,2.20
2011,11,17,13,33,2.10
2011,11,17,13,34,2.10
2011,11,17,13,35,2.00
2011,11,17,13,36,2.00
2011,11,17,13,37,1.90
2011,11,17,13,38,1.90
2011,11,17,13,39,1.90
2011,11,17,13,40,1.90
2011,11,17,13,41,1.80
2011,11,17,13,42,1.80
2011,11,17,13,43,1.80
2011,11,17,13,44,1.80
2011,11,17,13,45,1.70
2011,11,17,13,46,1.70
2011,11,17,13,47,1.70
2011,11,17,13,48,1.70
2011,11,17,13,49,1.70
2011,11,17,13,50,1.70
2011,11,17,13,51,1.70
2011,11,17,13,52,1.70
2011,11,17,13,53,1.70
2011,11,17,13,54,1.70
2011,11,17,13,55,1.70
2011,11,17,13,56,1.70
2011,11,17,13,57,1.70
2011,11,17,13,58,1.70
2011,11,17,13,59,1.70
2011,11,17,14,00,1.70
2011,11,17,14,01,1.70
2011,11,17,14,02,1.70
2011,11,17,14,03,1.70
2011,11,17,14,04,1.70
2011,11,17,14,05,1.70
2011,11,17,14,06,1.70
2011,11,17,14,07,1.70
2011,11,17,14,08,1.70
2011,11,17,14,09,1.70
2011,11,17,14,10,1.70
2011,11,17,14,11,1.70
2011,11,17,14,12,1.70
2011,11,17,14,13,1.70
2011,11,17,14,14,1.70
2011,11,17,14,15,1.70
2011,11,17,14,16,1.70
2011,11,17,14,17,1.70
2011,11,17,14,18,1.70
2011,11,17,14,19,1.70
2011,11,17,14,20,1.70
2011,11,17,14,21,1.70
2011,11,17,14,22,1.70
2011,11,17,14,23,1.60
2011,11,17,14,24,1.60
2011,11,17,14,25,1.60
2011,11,17,14,26,1.60
2011,11,17,14,27,1.60
2011,11,17,14,28,1.60
2011,11,17,14,29,1.60
2011,11,17,14,30,1.60
2011,11,17,14,31,1.60
2011,11,17,14,32,1.60
2011,11,17,14,33,1.60
2011,11,17,14,34,1.60
2011,11,17,14,35,1.60
2011,11,17,14,36,1.60
2011,11,17,14,37,1.60
2011,11,17,14,38,1.70
2011,11,17,14,39,1.70
2011,11,17,14,40,1.70
2011,11,17,14,41,1.60
2011,11,17,14,42,1.60
2011,11,17,14,43,1.70
2011,11,17,14,44,1.70
2011,11,17,14,45,1.60
2011,11,17,14,46,1.60
2011,11,17,14,47,1.60
2011,11,17,14,48,1.60
2011,11,17,14,49,1.60
2011,11,17,14,50,1.60
2011,11,17,14,51,1.60
2011,11,17,14,52,1.60
2011,11,17,14,53,1.60
2011,11,17,14,54,1.60
2011,11,17,14,55,1.60
2011,11,17,14,56,1.60
2011,11,17,14,57,1.60
2011,11,17,14,58,1.60
2011,11,17,14,59,1.60
2011,11,17,15,00,1.60
2011,11,17,15,01,1.60
2011,11,17,15,02,1.60
2011,11,17,15,03,1.60
2011,11,17,15,04,1.60
2011,11,17,15,05,1.60
2011,11,17,15,06,1.60
2011,11,17,15,07,1.60
2011,11,17,15,08,1.60
2011,11,17,15,09,1.60
2011,11,17,15,10,1.60
2011,11,17,15,11,1.60
2011,11,17,15,12,1.60
2011,11,17,15,13,1.60
2011,11,17,15,14,1.60
2011,11,17,15,15,1.60
2011,11,17,15,16,1.60
2011,11,17,15,17,1.60
2011,11,17,15,18,1.60
2011,11,17,15,19,1.60
2011,11,17,15,20,1.60
2011,11,17,15,21,1.60
2011,11,17,15,22,1.60
2011,11,17,15,23,1.60
2011,11,17,15,24,1.60
2011,11,17,15,25,1.60
2011,11,17,15,26,1.60
2011,11,17,15,27,1.60
2011,11,17,15,28,1.60
2011,11,17,15,29,1.60
2011,11,17,15,30,1.60
2011,11,17,15,31,1.60
2011,11,17,15,32,1.60
2011,11,17,15,33,1.60
2011,11,17,15,34,1.60
2011,11,17,15,35,1.60
2011,11,17,15,36,1.60
2011,11,17,15,37,1.60
2011,11,17,15,38,1.60
2011,11,17,15,39,1.60
2011,11,17,15,40,1.60
2011,11,17,15,41,1.60
2011,11,17,15,42,1.60
2011,11,17,15,43,1.60
2011,11,17,15,44,1.60
2011,11,17,15,45,1.60
2011,11,17,15,46,1.60
2011,11,17,15,47,1.60
2011,11,17,15,48,1.60
2011,11,17,15,49,1.70
2011,11,17,15,50,1.70
2011,11,17,15,51,1.70
2011,11,17,15,52,1.70
2011,11,17,15,53,1.70
2011,11,17,15,54,1.70
2011,11,17,15,55,1.70
2011,11,17,15,56,1.70
2011,11,17,15,57,1.70
2011,11,17,15,58,1.70
2011,11,17,15,59,1.80
2011,11,17,16,00,1.80
2011,11,17,16,01,1.80
2011,11,17,16,02,1.80
2011,11,17,16,03,1.80
2011,11,17,16,04,1.80
2011,11,17,16,05,1.80
2011,11,17,16,06,1.80
2011,11,17,16,07,1.80
2011,11,17,16,08,1.80
2011,11,17,16,09,1.90
2011,11,17,16,10,1.90
2011,11,17,16,11,1.90
2011,11,17,16,12,1.90
2011,11,17,16,13,1.90
2011,11,17,16,14,1.90
2011,11,17,16,15,1.90
2011,11,17,16,16,1.90
2011,11,17,16,17,2.00
2011,11,17,16,18,1.90
2011,11,17,16,19,2.00
2011,11,17,16,20,2.00
2011,11,17,16,21,2.00
2011,11,17,16,22,2.00
2011,11,17,16,23,2.00
2011,11,17,16,24,2.00
2011,11,17,16,25,2.00
2011,11,17,16,26,2.00
2011,11,17,16,27,2.00
2011,11,17,16,28,2.00
2011,11,17,16,29,2.00
2011,11,17,16,30,1.90
2011,11,17,16,31,1.90
2011,11,17,16,32,1.90
2011,11,17,16,33,1.90
2011,11,17,16,34,1.90
2011,11,17,16,35,1.90
2011,11,17,16,36,1.90
2011,11,17,16,37,1.90
2011,11,17,16,38,1.90
2011,11,17,16,39,1.90
2011,11,17,16,40,1.90
2011,11,17,16,41,1.90
2011,11,17,16,42,1.90
2011,11,17,16,43,1.90
2011,11,17,16,44,1.80
2011,11,17,16,45,1.80
2011,11,17,16,46,1.80
2011,11,17,16,47,1.80
2011,11,17,16,48,1.80
2011,11,17,16,49,1.80
2011,11,17,16,50,1.80
2011,11,17,16,51,1.80
2011,11,17,16,52,1.80
2011,11,17,16,53,1.80
2011,11,17,16,54,1.80
2011,11,17,16,55,1.80
2011,11,17,16,56,1.80
2011,11,17,16,57,1.80
2011,11,17,16,58,1.80
2011,11,17,16,59,1.80
2011,11,17,17,00,1.80
2011,11,17,17,01,1.80
2011,11,17,17,02,1.80
2011,11,17,17,03,1.80
2011,11,17,17,04,1.80
2011,11,17,17,05,1.80
2011,11,17,17,06,1.80
2011,11,17,17,07,1.80
2011,11,17,17,08,1.80
2011,11,17,17,09,1.80
2011,11,17,17,10,1.80
2011,11,17,17,11,1.80
2011,11,17,17,12,1.70
2011,11,17,17,13,1.70
2011,11,17,17,14,1.70
2011,11,17,17,15,1.70
2011,11,17,17,16,1.70
2011,11,17,17,17,1.70
2011,11,17,17,18,1.70
2011,11,17,17,19,1.70
2011,11,17,17,20,1.60
2011,11,17,17,21,1.60
2011,11,17,17,22,1.60
2011,11,17,17,23,1.60
2011,11,17,17,24,1.60
2011,11,17,17,25,1.50
2011,11,17,17,26,1.50
2011,11,17,17,27,1.40
2011,11,17,17,28,1.40
2011,11,17,17,29,1.40
2011,11,17,17,30,1.40
2011,11,17,17,31,1.30
2011,11,17,17,32,1.30
2011,11,17,17,33,1.30
2011,11,17,17,34,1.30
2011,11,17,17,35,1.20
2011,11,17,17,36,1.20
2011,11,17,17,37,1.20
2011,11,17,17,38,1.20
2011,11,17,17,39,1.10
2011,11,17,17,40,1.10
2011,11,17,17,41,1.10
2011,11,17,17,42,1.00
2011,11,17,17,43,1.00
2011,11,17,17,44,0.90
2011,11,17,17,45,0.90
2011,11,17,17,46,0.90
2011,11,17,17,47,0.90
2011,11,17,17,48,0.90
2011,11,17,17,49,0.80
2011,11,17,17,50,0.80
2011,11,17,17,51,0.80
2011,11,17,17,52,0.80
2011,11,17,17,53,0.80
2011,11,17,17,54,0.80
2011,11,17,17,55,0.70
2011,11,17,17,56,0.70
2011,11,17,17,57,0.70
2011,11,17,17,58,0.70
2011,11,17,17,59,0.70
2011,11,17,18,00,0.70
2011,11,17,18,01,0.70
2011,11,17,18,02,0.70
2011,11,17,18,03,0.70
2011,11,17,18,04,0.80
2011,11,17,18,05,0.80
2011,11,17,18,06,0.80